RH
94 86 84 78 76 75 75 76 77 78 78 78 75 72 70 68 65 60 59 65 68 67 71 70 74 75 74 72 71 70 70 69 68 67 66 63 60 60 62 67 66 62 57
90 82 84 80 76 75 73 72 74 77 79 78 76 71 69 66 64 60 57 61 67 67 71 74 76 76 72 71 71 68 66 65 64 66 74 76 74 60 62 65 67 66 61
87 80 78 82 81 77 73 71 71 69 72 74 73 72 69 65 63 60 59 58 65 67 66 66 67 67 66 65 63 61 60 60 62 67 77 79 72 55 54 58 64 66 61
81 80 80 83 82 75 72 72 70 68 68 76 74 67 64 62 61 59 58 59 62 66 66 66 66 68 67 66 65 65 65 66 70 78 79 66 58 62 56 55 58 64 67
82 79 80 84 81 76 74 72 68 68 75 73 70 65 61 61 64 64 61 62 63 64 64 64 66 66 67 68 68 66 67 67 76 78 78 74 80 67 67 66 64 60 62
77 84 87 84 82 80 79 74 73 73 74 71 70 67 65 64 66 69 65 67 68 69 69 69 70 71 72 70 67 65 66 70 80 71 66 72 72 67 69 69 69 68 67
77 86 85 85 84 82 79 77 74 76 74 71 67 62 61 61 64 72 69 68 69 70 71 71 73 72 73 72 71 70 73 82 83 76 70 76 72 62 65 69 68 68 69
83 83 82 86 85 83 79 77 74 77 74 71 70 66 65 66 65 72 72 69 70 72 73 74 74 73 75 75 76 76 79 82 77 69 71 72 72 59 65 67 70 72 74
78 82 83 85 85 85 82 79 76 79 76 73 76 75 75 78 78 74 74 70 72 74 76 77 76 77 76 72 67 62 69 72 81 70 64 79 71 60 66 70 70 67 72
81 81 94 95 88 87 86 84 81 80 82 81 83 82 82 87 86 81 83 78 75 78 80 80 78 75 70 61 55 59 65 67 70 73 78 78 61 62 69 65 63 70 68
82 84 87 95 95 95 94 84 85 84 85 84 88 84 90 94 88 86 87 86 84 81 80 77 76 72 68 69 62 63 55 44 71 76 79 73 65 69 66 62 69 67 67
80 81 82 88 88 90 78 94 95 86 92 93 93 91 84 90 92 82 90 89 86 85 79 69 63 67 69 64 56 47 36 41 66 72 79 67 56 67 63 62 66 65 64
64 75 80 83 82 82 82 91 94 95 94 91 89 92 89 77 91 91 97 96 96 86 81 69 59 53 42 41 34 30 35 39 71 80 81 70 63 64 60 61 64 61 59
61 60 78 78 78 74 81 82 83 84 84 80 78 83 84 84 83 89 93 96 95 86 71 64 61 44 32 28 30 28 28 38 73 84 84 73 62 60 57 56 56 55 53
59 57 59 71 72 76 80 74 76 76 76 68 65 69 73 74 75 80 85 88 78 70 62 60 45 33 29 28 28 28 28 33 67 79 89 73 62 57 54 51 48 46 45
54 56 56 63 68 73 77 73 73 69 70 69 63 62 63 66 72 79 69 66 62 54 47 38 32 33 34 32 30 28 28 32 49 75 78 76 60 54 48 44 42 42 43
38 53 57 60 66 70 73 70 66 68 62 65 59 60 58 64 75 65 63 62 55 48 38 34 36 36 38 33 34 33 30 30 31 62 68 68 62 55 41 38 37 38 39
35 52 54 51 66 68 70 78 66 64 62 83 60 57 58 72 64 62 61 59 49 46 43 41 42 43 43 41 37 35 36 33 30 38 52 60 58 52 46 36 33 35 35
33 35 55 53 62 67 69 71 65 69 63 87 66 59 61 64 59 58 59 54 43 45 44 37 42 42 42 41 35 33 42 40 37 29 34 38 40 47 48 38 33 39 33
23 34 40 54 58 60 61 66 84 90 64 64 64 58 70 63 62 61 57 45 46 47 44 42 40 46 44 43 30 36 44 46 42 36 35 32 39 37 38 36 44 37 34
31 32 38 51 57 62 66 71 78 79 72 70 70 66 67 63 58 54 51 45 49 43 41 39 46 43 46 46 44 44 50 39 43 43 45 45 37 34 36 39 38 39 38
35 37 37 41 54 58 60 62 89 94 93 86 78 68 65 59 54 51 46 47 46 46 42 40 42 50 48 47 40 54 46 42 38 36 46 34 32 35 32 30 31 32 39
38 39 37 38 45 48 58 81 98 96 96 95 90 73 65 63 56 46 43 45 44 46 48 46 48 47 52 47 38 37 46 47 44 43 37 38 32 38 36 38 35 33 36
34 41 38 38 43 44 50 80 84 85 92 94 86 90 77 58 46 45 46 41 45 54 51 49 44 49 50 49 47 34 37 37 41 36 42 41 40 33 39 41 41 39 37
30 32 43 38 40 48 43 71 82 87 93 90 86 80 78 75 52 48 48 44 42 46 48 44 39 41 46 47 51 47 40 46 43 49 48 47 42 39 40 44 44 42 40
39 39 45 50 45 49 51 81 75 92 86 83 83 78 72 75 61 50 46 42 42 40 39 43 40 37 40 42 42 40 40 39 42 43 49 51 48 46 46 44 46 47 47
Wind_Speed
5 12 18 18 18 17 16 15 15 14 14 14 16 15 15 14 14 13 12 11 11 12 13 12 12 15 16 16 15 12 10 9 7 6 6 6 7 9 8 8 6 4 5
13 13 18 17 18 17 16 15 14 12 13 13 14 15 14 14 13 13 12 10 11 12 12 15 16 16 16 14 14 9 8 6 4 4 4 1 2 6 7 6 6 3 3
14 13 14 17 17 17 16 15 14 13 12 13 14 15 14 13 13 13 12 11 11 12 12 12 14 13 13 12 10 8 6 5 4 6 4 3 2 4 5 4 4 4 1
16 12 13 18 18 19 17 16 14 13 13 14 16 15 14 13 13 13 13 12 12 12 12 12 12 12 11 11 9 8 6 4 4 5 4 5 4 5 6 3 3 5 5
16 12 13 19 19 19 18 16 15 15 16 16 14 12 14 14 14 14 13 13 13 12 12 12 11 11 10 8 7 6 4 3 5 4 3 5 4 5 5 4 3 3 3
16 14 16 19 19 18 16 16 16 16 17 16 14 14 15 15 14 13 13 13 12 12 11 11 10 9 8 7 6 4 3 4 5 5 5 6 5 6 4 3 2 2 3
16 15 15 20 19 18 17 15 15 16 18 16 16 16 14 13 12 13 13 12 11 10 10 9 9 8 7 6 5 3 4 6 5 4 3 4 4 7 8 7 8 9 8
16 15 15 19 19 18 17 16 15 15 17 15 13 13 13 11 10 14 12 12 11 10 9 8 8 7 5 4 3 2 4 6 6 3 4 4 7 6 8 9 9 11 13
15 13 11 12 15 17 16 16 15 15 15 14 13 12 9 8 10 15 12 12 10 9 8 8 7 7 7 5 3 1 5 5 4 4 5 3 6 8 8 10 11 11 13
13 13 10 8 10 9 9 14 14 14 12 11 12 11 8 7 12 14 12 10 9 9 8 8 8 7 6 4 2 4 6 9 6 4 3 3 7 9 11 10 8 12 12
11 12 12 10 7 7 6 8 11 12 11 12 11 11 6 4 7 10 8 10 9 9 8 7 7 7 5 2 3 6 7 4 5 3 3 8 10 12 10 9 12 12 12
13 12 13 13 12 10 8 6 6 7 5 5 5 6 5 5 5 7 7 10 9 9 7 6 6 5 4 1 2 5 3 5 4 3 3 6 6 11 10 10 11 12 11
10 11 13 13 13 13 9 6 3 3 3 4 6 6 5 4 4 4 3 3 3 5 2 3 2 2 4 3 3 4 4 5 3 3 5 11 9 10 9 10 11 11 11
11 13 16 14 13 13 10 8 7 6 5 4 6 7 4 3 7 5 4 5 4 3 3 3 2 4 4 5 4 5 5 4 3 2 4 11 10 10 9 10 10 9 10
11 12 16 16 13 10 11 9 9 8 7 8 8 9 6 7 7 6 5 4 4 4 3 3 3 4 4 4 4 4 5 5 5 3 2 11 10 9 9 9 8 9 9
13 13 13 14 16 13 10 11 9 9 9 8 8 9 9 8 5 4 5 5 4 4 4 4 4 4 3 3 4 3 4 5 5 5 3 4 9 9 8 8 8 8 9
7 13 16 14 18 17 14 12 9 9 10 10 9 11 10 8 6 8 6 5 4 4 6 4 4 4 4 3 4 2 2 4 5 6 4 3 4 7 7 6 7 8 8
8 9 15 14 18 18 14 11 9 9 10 8 9 9 10 8 11 8 6 5 5 4 4 4 3 4 4 3 2 2 1 2 4 6 5 4 3 3 4 4 6 7 7
9 9 13 16 17 18 15 12 11 8 8 7 7 8 9 11 10 9 6 5 6 5 4 4 3 3 2 2 2 1 1 2 2 4 6 6 6 5 3 3 2 7 8
14 9 9 12 17 18 13 11 6 5 7 10 8 9 11 10 10 8 5 7 5 5 5 4 4 4 2 1 2 2 1 1 3 3 4 3 3 4 4 2 3 2 6
9 9 10 10 16 13 11 10 9 7 8 8 8 11 12 10 11 10 7 6 5 6 6 6 4 4 3 3 2 3 2 2 1 2 3 3 4 4 3 4 2 1 1
9 9 7 8 10 15 13 12 5 5 3 5 7 10 10 12 10 11 10 7 7 6 6 6 5 3 2 3 3 2 2 4 4 2 0 2 3 2 3 3 2 1 1
9 9 9 8 9 10 12 6 4 7 3 3 3 7 8 10 9 11 10 9 7 6 6 5 5 6 4 1 3 4 2 3 2 3 2 1 3 1 2 3 3 3 3
9 8 9 9 9 9 10 9 15 13 10 5 6 5 7 10 11 10 9 9 8 5 6 5 4 4 5 4 1 2 3 4 3 3 3 3 2 3 3 3 4 4 4
9 9 9 10 10 10 13 12 12 11 6 6 5 10 8 5 8 11 9 10 10 7 6 7 5 6 2 4 3 2 2 1 2 3 4 4 4 3 4 3 4 4 6
2 4 7 8 9 8 14 13 16 15 13 11 9 8 7 6 7 10 10 9 10 8 8 7 6 6 5 4 3 3 3 3 2 2 2 3 4 4 2 4 4 4 4
Wind_Direction
155 150 144 141 136 129 125 121 118 117 116 121 119 117 113 104 96 87 86 92 91 86 75 87 92 109 106 97 90 85 80 72 63 64 66 63 75 81 78 51 58 34 71
140 149 144 141 136 129 125 120 116 114 123 127 125 121 115 106 98 90 90 98 100 96 89 84 94 93 95 95 90 83 74 67 46 52 62 85 34 64 72 59 58 64 68
136 147 144 140 134 129 126 123 122 125 129 138 136 125 122 115 107 101 99 101 108 104 96 95 96 94 92 88 87 84 80 60 30 8 355 144 172 61 60 51 29 28 160
138 147 147 143 137 134 133 132 132 135 136 139 130 130 127 120 111 103 104 106 109 110 104 98 96 96 95 96 95 93 83 54 2 349 352 136 129 66 55 43 26 17 7
140 147 150 146 141 140 140 136 137 139 138 132 133 134 135 126 118 109 108 107 107 107 104 99 97 94 95 96 84 101 70 22 340 334 341 126 120 76 55 44 25 358 348
146 147 153 150 145 143 143 140 142 144 148 137 131 136 135 133 125 119 117 116 112 108 103 99 96 95 95 90 89 74 36 353 339 324 152 131 125 82 57 8 355 326 296
146 151 155 154 149 147 149 145 148 148 147 145 144 143 144 144 140 134 129 126 120 113 106 103 103 102 99 96 85 49 344 340 338 357 72 97 84 50 34 54 41 45 35
146 155 159 155 152 150 152 148 152 155 148 148 146 150 149 155 155 148 141 136 131 125 120 113 111 109 102 89 73 29 345 346 2 12 75 74 62 63 61 59 55 57 53
140 146 151 155 153 154 155 152 154 157 155 150 144 142 150 168 171 153 148 143 137 130 123 121 128 118 111 104 98 18 359 344 54 75 74 37 55 71 69 60 58 53 56
148 152 147 146 150 152 159 155 157 156 152 149 141 143 149 149 153 148 150 148 141 136 129 118 121 127 123 117 107 37 13 45 99 81 59 45 64 82 74 61 62 68 63
157 159 152 148 149 149 152 161 158 154 157 153 148 154 142 130 131 138 149 145 146 146 141 139 142 134 119 86 357 39 62 68 91 69 60 45 75 89 70 62 72 63 61
161 167 162 162 163 161 164 152 153 154 159 154 159 169 161 158 148 148 149 155 154 151 151 155 145 139 128 111 27 51 58 64 88 71 57 68 88 91 69 66 75 64 54
167 169 172 173 172 166 158 159 158 155 159 172 171 187 173 167 154 143 149 146 150 152 169 128 113 125 123 110 83 59 41 73 91 70 68 72 82 81 71 67 69 62 55
185 173 177 178 177 175 159 164 169 169 177 182 184 193 153 158 159 165 159 165 167 172 174 155 155 111 89 75 73 71 60 80 106 83 74 84 87 89 76 69 65 58 52
195 189 175 175 175 172 162 169 169 182 188 189 181 195 160 172 177 167 161 164 164 160 149 123 122 98 82 76 71 83 68 88 127 108 81 94 95 93 82 73 64 53 45
192 190 188 167 170 170 173 180 171 185 194 185 180 191 174 180 174 147 146 149 153 141 130 133 123 105 87 81 58 72 97 86 124 128 114 100 113 106 91 73 57 40 31
210 191 185 175 171 173 179 182 184 190 193 188 184 179 175 176 148 145 145 144 157 134 122 112 93 85 70 42 55 43 112 120 108 143 134 116 108 103 96 75 39 21 18
229 188 190 187 171 176 181 186 192 192 187 175 177 178 173 155 147 147 145 151 146 125 126 114 108 78 75 54 2 1 61 90 119 133 143 144 131 110 101 79 38 17 8
215 216 197 191 182 176 181 185 198 187 185 163 167 170 161 150 152 146 148 148 142 131 133 126 75 107 71 18 320 27 160 130 148 130 142 154 159 148 155 173 29 27 12
234 213 193 201 189 187 183 179 186 167 183 174 170 175 157 153 146 134 134 143 140 131 129 119 113 60 98 358 330 355 259 110 117 147 159 165 154 153 150 140 70 19 14
228 217 200 186 192 184 187 186 189 176 185 177 180 160 155 155 150 143 145 143 150 142 151 140 119 113 34 5 57 2 1 352 100 189 168 152 162 176 171 127 152 196 350
225 217 223 198 200 191 186 188 173 167 157 176 162 148 151 153 156 144 151 156 154 134 143 142 134 120 99 23 124 97 30 337 340 330 22 162 152 145 142 164 245 280 161
236 225 218 202 200 206 192 149 91 88 77 88 146 148 152 150 157 146 153 153 145 135 152 148 143 140 142 39 77 145 103 216 321 333 4 62 37 40 3 347 335 311 255
242 246 225 209 191 206 184 170 168 173 170 177 161 152 142 156 149 142 147 144 140 133 140 143 142 138 130 148 83 54 88 142 154 329 328 315 36 37 351 323 333 333 298
216 212 226 237 211 189 207 179 173 173 146 123 129 136 143 151 151 135 154 147 144 143 143 138 140 130 133 135 143 138 81 50 85 131 265 305 343 326 325 340 313 313 319
307 257 234 230 235 209 195 180 181 154 144 139 150 151 158 155 150 147 154 151 141 147 149 146 136 121 122 115 121 125 152 159 181 154 229 273 254 276 299 297 302 335 339